This is the latest recevied weather packets stored in our database for station/object KJ5HMU-13. If no packets are shown the sender has not sent any weather packets the latest 1 day(s).
| Time | Temp. | Humidity | Pressure | Rain* | Wind** | Luminosity | Snow |
|---|---|---|---|---|---|---|---|
| 1777988601 | 2.22° C | 99% | 1019 hPa | 0 mm | 0 m/s | 36 W/m² | - |
| 1777988298 | 2.22° C | 98% | 1019 hPa | 0 mm | 0 m/s | 36 W/m² | - |
| 1777987995 | 2.22° C | 98% | 1019.1 hPa | 0 mm | 0 m/s | 24 W/m² | - |
| 1777987690 | 2.22° C | 98% | 1019.4 hPa | 0 mm | 0 m/s | 17 W/m² | - |
| 1777987387 | 2.22° C | 98% | 1019.1 hPa | 0 mm | 0 m/s | 19 W/m² | - |
| 1777987085 | 1.67° C | 98% | 1019.2 hPa | 0 mm | 0 m/s | 12 W/m² | - |
| 1777986782 | 1.67° C | 98% | 1019 hPa | 0 mm | 0 m/s | 9 W/m² | - |
| 1777986479 | 1.67° C | 98% | 1019.2 hPa | 0 mm | 0 m/s | 9 W/m² | - |
| 1777986185 | 1.67° C | 98% | 1019 hPa | 0 mm | 0 m/s | 14 W/m² | - |
| 1777985874 | 1.67° C | 98% | 1018.9 hPa | 0 mm | 0 m/s | 10 W/m² | - |
| 1777985572 | 1.67° C | 98% | 1019 hPa | 0 mm | 0 m/s | 10 W/m² | - |
| 1777985268 | 1.67° C | 98% | 1019 hPa | 0 mm | 0 m/s | 7 W/m² | - |
| 1777984965 | 1.67° C | 98% | 1019 hPa | 0 mm | 0 m/s | 5 W/m² | - |
| 1777984660 | 1.67° C | 98% | 1018.9 hPa | 0 mm | 0 m/s | 6 W/m² | - |
| 1777984357 | 1.67° C | 98% | 1018.7 hPa | 0 mm | 0 m/s | 4 W/m² | - |
| 1777984054 | 1.67° C | 98% | 1019 hPa | 0 mm | 0 m/s | 3 W/m² | - |
| 1777983751 | 1.67° C | 98% | 1019 hPa | 1.78 mm | 0 m/s | 2 W/m² | - |
| 1777983448 | 1.67° C | 98% | 1019.1 hPa | 1.78 mm | 0 m/s | 2 W/m² | - |
| 1777983144 | 1.67° C | 98% | 1019 hPa | 0 mm | 0 m/s | 2 W/m² | - |
| 1777982841 | 1.67° C | 98% | 1018.9 hPa | 0 mm | 0 m/s | 2 W/m² | - |
| 1777982537 | 1.67° C | 98% | 1019 hPa | 0 mm | 0 m/s | 1 W/m² | - |
| 1777982235 | 1.67° C | 98% | 1019 hPa | 0 mm | 0 m/s | 0 W/m² | - |
| 1777981934 | 1.67° C | 98% | 1019 hPa | 0 mm | 0 m/s | 0 W/m² | - |
| 1777981631 | 1.67° C | 98% | 1019.1 hPa | 0 mm | 0 m/s | 0 W/m² | - |
| 1777981327 | 1.67° C | 98% | 1019 hPa | 0 mm | 0 m/s | 0 W/m² | - |
* Rain latest hour (hover to see other rain measurements)
** Current wind speed in m/s (hover to see current wind gust speed)